Kirksville, MO

8:32 AM CST on December 11, 2016 (GMT -0600)
Kirksville Regional

Weather History for KIRK - March, 2011

Change the Weather History Date:

Wednesday, March 9, 2011

  Actual Average Record
Temperature  
Mean Temperature 38 °F 38 °F  
Max Temperature 42 °F 48 °F 74 °F (1974)
Min Temperature 33 °F 28 °F 1 °F (1978)
Degree Days  
Heating Degree Days 27 27  
Month to date heating degree days 250 260  
Since 1 July heating degree days 4954 4793  
Cooling Degree Days 0 0  
Month to date cooling degree days 0 0  
Year to date cooling degree days 0 0  
Moisture  
Dew Point 36 °F    
Average Humidity 95    
Maximum Humidity 100    
Minimum Humidity 89    
Precipitation  
Precipitation 0.02 in 0.08 in 1.78 in (2013)
Month to date precipitation 1.18 0.72  
Year to date precipitation 2.75 3.52  
Sea Level Pressure  
Sea Level Pressure 29.89 in    
Wind  
Wind Speed 11 mph (WNW)    
Max Wind Speed 20 mph    
Max Gust Speed 29 mph    
Visibility 3 miles    
Events Fog , Snow    
T = Trace of Precipitation, MM = Missing Value Source: NWS Daily Summary

Daily Weather History Graph

Daily Weather History Graph

Search for Another Location

Airport or City:

Trip Planner

Search our weather history database for the weather conditions in past years. The results will help you decide how hot, cold, wet, or windy it might be!

Date:

Astronomy

Mar. 09, 2011 Rise Set
Actual Time 6:31 AM CST 6:10 PM CST
Civil Twilight 6:04 AM CST 6:37 PM CST
Nautical Twilight 5:33 AM CST 7:08 PM CST
Astronomical Twilight 5:01 AM CST 7:40 PM CST
Moon 8:23 AM CST (3/9) 11:08 PM CST (3/9)
Length of Visible Light 12h 32m
Length of Day
11h 38m
Waxing Crescent, 20% of the Moon is Illuminated
Mar 9
Waxing Crescent
Mar 12
First Quarter
Mar 19
Full
Mar 26
Last Quarter
Apr 3
New

Hourly Weather History & Observations

Time (CST) Temp. Windchill Dew Point Humidity Pressure Visibility Wind Dir Wind Speed Gust Speed Precip Events Conditions
12:09 AM 42.8 °F 41.1 °F 42.8 °F 100% 29.76 in 0.8 mi NE 3.5 mph - N/A   Overcast
12:19 AM 42.8 °F - 42.8 °F 100% 29.75 in 0.5 mi Calm Calm - N/A Fog Fog
12:55 AM 41.0 °F - 41.0 °F 100% 29.77 in 0.5 mi Calm Calm - N/A Fog Fog
1:24 AM 41.0 °F - 41.0 °F 100% 29.74 in 0.8 mi Calm Calm - 0.01 in   Mist
1:34 AM 41.0 °F - 41.0 °F 100% 29.74 in 0.5 mi Calm Calm - 0.01 in Fog Fog
1:55 AM 41.0 °F - 41.0 °F 100% 29.77 in 0.5 mi Calm Calm - 0.01 in Fog Fog
2:02 AM 41.0 °F - 41.0 °F 100% 29.74 in 0.5 mi Calm Calm - N/A Fog Fog
2:22 AM 41.0 °F - 41.0 °F 100% 29.74 in 0.5 mi Calm Calm - N/A Fog Fog
2:52 AM 41.0 °F 39.0 °F 41.0 °F 100% 29.74 in 0.5 mi WSW 3.5 mph - N/A Fog Fog
2:55 AM 41.0 °F 37.1 °F 41.0 °F 100% 29.76 in 0.5 mi West 5.8 mph - N/A Fog Fog
3:02 AM 41.0 °F 37.1 °F 41.0 °F 100% 29.74 in 0.8 mi West 5.8 mph - N/A   Overcast
3:25 AM 41.0 °F 37.1 °F 41.0 °F 100% 29.74 in 1.0 mi West 5.8 mph - N/A   Overcast
3:37 AM 41.0 °F 37.1 °F 41.0 °F 100% 29.74 in 3.0 mi West 5.8 mph - N/A   Overcast
3:55 AM 41.0 °F 35.8 °F 41.0 °F 100% 29.77 in 4.0 mi West 8.1 mph - N/A   Overcast
4:14 AM 39.2 °F 33.0 °F 39.2 °F 100% 29.74 in 1.8 mi West 9.2 mph - N/A   Overcast
4:55 AM 39.0 °F 32.3 °F 39.0 °F 100% 29.78 in 0.8 mi West 10.4 mph - N/A   Overcast
5:05 AM 39.2 °F 32.0 °F 39.2 °F 100% 29.76 in 0.5 mi West 11.5 mph 20.7 mph N/A Fog Fog
5:19 AM 39.2 °F 32.5 °F 39.2 °F 100% 29.76 in 0.8 mi West 10.4 mph - N/A   Overcast
5:29 AM 39.2 °F 31.6 °F 39.2 °F 100% 29.76 in 1.0 mi West 12.7 mph - N/A   Overcast
5:55 AM 37.9 °F 30.9 °F 37.9 °F 100% 29.80 in 1.2 mi West 10.4 mph - N/A   Overcast
6:15 AM 37.4 °F 30.3 °F 37.4 °F 100% 29.78 in 2.5 mi West 10.4 mph - N/A   Overcast
6:36 AM 37.4 °F 28.5 °F 37.4 °F 100% 29.78 in 1.8 mi West 15.0 mph - N/A   Overcast
6:55 AM 37.0 °F 28.9 °F 37.0 °F 100% 29.82 in 1.0 mi West 12.7 mph 19.6 mph N/A   Overcast
7:00 AM 35.6 °F 26.6 °F 35.6 °F 100% 29.79 in 0.5 mi West 13.8 mph 19.6 mph N/A Fog Fog
7:12 AM 35.6 °F 28.0 °F 35.6 °F 100% 29.80 in 0.8 mi WNW 10.4 mph - N/A   Overcast
7:29 AM 35.6 °F 27.1 °F 35.6 °F 100% 29.81 in 0.5 mi WNW 12.7 mph 18.4 mph N/A Fog Fog
7:55 AM 35.1 °F 26.9 °F 35.1 °F 100% 29.85 in 0.8 mi West 11.5 mph 19.6 mph N/A   Overcast
8:12 AM 35.6 °F 27.5 °F 35.6 °F 100% 29.83 in 1.0 mi West 11.5 mph - N/A   Overcast
8:47 AM 35.6 °F 28.0 °F 35.6 °F 100% 29.85 in 2.5 mi West 10.4 mph 21.9 mph N/A   Overcast
8:55 AM 35.1 °F 27.4 °F 35.1 °F 100% 29.88 in 2.0 mi West 10.4 mph - N/A   Overcast
9:17 AM 35.6 °F 27.1 °F 35.6 °F 100% 29.85 in 3.0 mi West 12.7 mph - N/A   Overcast
9:55 AM 36.0 °F 26.7 °F 36.0 °F 100% 29.89 in 8.0 mi WNW 15.0 mph - N/A   Overcast
10:55 AM 36.0 °F 27.1 °F 36.0 °F 100% 29.91 in 7.0 mi WNW 13.8 mph 24.2 mph N/A   Overcast
11:55 AM 36.0 °F 27.5 °F 36.0 °F 100% 29.91 in 5.0 mi NW 12.7 mph 25.3 mph N/A   Overcast
12:55 PM 36.0 °F 26.3 °F 36.0 °F 100% 29.91 in 5.0 mi NW 16.1 mph 25.3 mph N/A   Overcast
1:55 PM 36.0 °F 28.5 °F 35.1 °F 97% 29.92 in 5.0 mi WNW 10.4 mph 24.2 mph N/A   Overcast
2:38 PM 35.6 °F 26.2 °F 33.8 °F 93% 29.92 in 5.0 mi NW 15.0 mph 23.0 mph N/A   Overcast
2:55 PM 36.0 °F 26.7 °F 35.1 °F 97% 29.96 in 5.0 mi NW 15.0 mph 24.2 mph N/A   Overcast
3:55 PM 36.0 °F 26.7 °F 33.1 °F 89% 30.00 in 5.0 mi NW 15.0 mph 28.8 mph N/A   Overcast
4:55 PM 35.1 °F 25.9 °F 33.1 °F 92% 30.02 in 5.0 mi NW 13.8 mph 20.7 mph N/A   Overcast
5:55 PM 35.1 °F 25.9 °F 32.0 °F 89% 30.05 in 5.0 mi NW 13.8 mph - N/A   Overcast
6:42 PM 33.8 °F 25.3 °F 32.0 °F 93% 30.04 in 2.5 mi WNW 11.5 mph - 0.00 in Snow Light Snow
6:55 PM 33.1 °F 24.9 °F 32.0 °F 96% 30.08 in 2.0 mi WNW 10.4 mph - 0.01 in Snow Light Snow
6:57 PM 33.8 °F 25.8 °F 32.0 °F 93% 30.04 in 2.0 mi NW 10.4 mph - 0.00 in Snow Light Snow
7:05 PM 33.8 °F 26.4 °F 32.0 °F 93% 30.04 in 2.5 mi WNW 9.2 mph - 0.00 in Snow Light Snow
7:09 PM 33.8 °F 26.4 °F 32.0 °F 93% 30.04 in 2.5 mi WNW 9.2 mph - 0.00 in Snow Light Snow
7:16 PM 33.8 °F 25.8 °F 32.0 °F 93% 30.05 in 2.5 mi WNW 10.4 mph - 0.00 in Snow Light Snow
7:26 PM 33.8 °F 26.4 °F 32.0 °F 93% 30.05 in 2.5 mi WNW 9.2 mph - 0.00 in Snow Light Snow
7:39 PM 33.8 °F 24.3 °F 32.0 °F 93% 30.05 in 3.0 mi WNW 13.8 mph 18.4 mph 0.00 in Snow Light Snow
7:42 PM 33.8 °F 25.3 °F 32.0 °F 93% 30.05 in 2.5 mi NW 11.5 mph 18.4 mph 0.00 in Snow Light Snow
7:52 PM 33.8 °F 25.3 °F 32.0 °F 93% 30.06 in 2.5 mi NW 11.5 mph - 0.00 in Snow Light Snow
7:55 PM 33.1 °F 24.9 °F 32.0 °F 96% 30.09 in 2.5 mi NW 10.4 mph - 0.00 in Snow Light Snow
8:06 PM 33.8 °F 25.3 °F 32.0 °F 93% 30.06 in 3.0 mi NW 11.5 mph 18.4 mph 0.00 in Snow Light Snow
8:23 PM 33.8 °F 23.5 °F 32.0 °F 93% 30.07 in 4.0 mi NW 16.1 mph 21.9 mph 0.00 in Snow Light Snow
8:55 PM 33.1 °F 23.4 °F 30.9 °F 92% 30.11 in 6.0 mi NW 13.8 mph 20.7 mph 0.00 in   Overcast
9:55 PM 33.1 °F 24.4 °F 30.9 °F 92% 30.14 in 6.0 mi NW 11.5 mph 24.2 mph N/A   Overcast
10:55 PM 33.1 °F 23.0 °F 30.9 °F 92% 30.15 in 6.0 mi NNW 15.0 mph 20.7 mph N/A   Overcast
11:55 PM 33.1 °F 23.9 °F 30.9 °F 92% 30.15 in 6.0 mi NW 12.7 mph - N/A   Overcast